Home   Weather   Fürstenwalde/Spree   Past weeks

Flag for Germany Past Weather in Fürstenwalde/Spree, Brandenburg, Germany — Yesterday and Last 2 Weeks

Now
48 °F

Scattered showers. Broken clouds.


Feels Like: 47 °F
Forecast: 37 / 53 °F
Wind: 3 mph from South

Location: Berlin-Schoenefeld

Current Time: Apr 26, 2017 at 8:11:52 pm

Latest Report: Apr 26, 2017 at 7:50 pm


Visibility: N/A

Pressure: 29.89 "Hg

Humidity: 54%

Dew Point: 32 °F

Location of Fürstenwalde/SpreeLocation

Past Weather in Fürstenwalde/Spree — Graph

°F

Fürstenwalde/Spree Temperature Yesterday

Maximum temperature yesterday: 54 °F (at 3:50 pm)
Minimum temperature yesterday: 37 °F (at 11:50 pm)
Average temperature yesterday: 46 °F

High & Low Weather Summary for the Past Weeks

 TemperatureHumidityPressure
High59 °F (Apr 21, 2:50 pm)100% (Apr 17, 12:20 am)30.57 "Hg (Apr 17, 12:20 am)
Low28 °F (Apr 20, 4:20 am)34% (Apr 20, 2:20 pm)29.56 "Hg (Apr 25, 5:50 am)
Average44 °F71%30.02 "Hg
* Reported Apr 11 5:20 pm — Apr 26 5:50 pm, Fürstenwalde/Spree, Weather by CustomWeather, © 2017

Note: Actual official high and low records may vary slightly from our data, if they occured in-between our weather recording intervals... More about our weather records

Advertising

Fürstenwalde/Spree Weather History for the Previous 24 Hours

Scroll right to see more
 ConditionsComfort  
Time TempWeatherWind HumidityBarometerVisibility
5:50 pm
Wed, Apr 26
52 °FScattered showers. Partly sunny.6 mph35%29.86 "HgN/A
5:20 pm52 °FScattered showers. Broken clouds.7 mph41%29.86 "HgN/A
4:50 pm52 °FScattered showers. Broken clouds.6 mph38%29.86 "HgN/A
4:20 pm54 °FScattered showers. Partly sunny.5 mph35%29.86 "HgN/A
3:50 pm54 °FPassing clouds.5 mph35%29.86 "HgN/A
3:20 pm54 °FPassing clouds.8 mph38%29.86 "HgN/A
2:50 pm52 °FSunny.2 mph38%29.86 "Hg10 mi
2:20 pm50 °FPassing clouds.9 mph40%29.86 "HgN/A
1:50 pm52 °FSunny.3 mph38%29.86 "Hg10 mi
1:20 pm52 °FPassing clouds.7 mph38%29.86 "HgN/A
12:50 pm50 °FScattered clouds.5 mph40%29.86 "HgN/A
11:50 am48 °FBroken clouds.7 mph43%29.86 "HgN/A
11:20 am50 °FBroken clouds.5 mph43%29.86 "HgN/A
10:50 am46 °FBroken clouds.5 mph53%29.86 "HgN/A
10:20 am48 °FBroken clouds.5 mph54%29.86 "HgN/A
9:50 am46 °FPartly sunny.3 mph57%29.86 "HgN/A
9:20 am45 °FPartly sunny.2 mph66%29.86 "HgN/A
8:50 am43 °FSunny.2 mph71%29.86 "Hg10 mi
8:20 am41 °FPassing clouds.3 mph81%29.86 "HgN/A
7:50 am37 °FPassing clouds.3 mph87%29.83 "HgN/A
7:20 am34 °FSunny.2 mph93%29.83 "Hg10 mi
6:50 am34 °FSunny.2 mph87%29.83 "Hg10 mi
6:20 am34 °FSunny.2 mph87%29.83 "Hg10 mi
5:50 am34 °FSunny.2 mph87%29.83 "Hg10 mi
5:20 am32 °FClear.2 mph93%29.80 "Hg10 mi
4:50 am34 °FClear.3 mph87%29.83 "Hg10 mi
4:20 am32 °FClear.3 mph93%29.80 "Hg10 mi
3:50 am36 °FClear.3 mph81%29.80 "Hg10 mi
3:20 am36 °FClear.2 mph81%29.80 "Hg10 mi
2:50 am36 °FClear.2 mph87%29.80 "Hg10 mi
2:20 am34 °FClear.3 mph87%29.80 "Hg10 mi
1:50 am36 °FClear.3 mph87%29.80 "Hg10 mi
1:20 am34 °FClear.5 mph87%29.80 "Hg10 mi
12:50 am36 °FClear.3 mph81%29.80 "Hg10 mi
12:20 am36 °FClear.5 mph87%29.80 "Hg10 mi
11:50 pm
Tue, Apr 25
37 °FClear.6 mph81%29.80 "Hg10 mi
11:20 pm39 °FClear.7 mph75%29.77 "Hg10 mi
10:50 pm41 °FClear.7 mph70%29.77 "Hg10 mi
10:20 pm41 °FClear.9 mph70%29.77 "Hg10 mi
9:50 pm41 °FClear.8 mph66%29.77 "Hg10 mi
9:20 pm43 °FClear.10 mph61%29.74 "Hg10 mi
8:50 pm45 °FClear.9 mph57%29.74 "Hg10 mi
8:20 pm45 °FClear.12 mph57%29.74 "Hg10 mi
Weather by CustomWeather, © 2017

See weather overviewHow to use our weather pages